Location: Franzen
(48.6167°N, 15.3833°E)
Time: 10:41:57
(UTC+00:00)

BREEZE M DEB (TANK) - Pass Details

Date: 22 April 2021
Orbit: 273 x 14497 km, 49.6° (Epoch: 16 May)

Event Time Altitude Azimuth Distance (km) Brightness Sun altitude
Rises 20:24:46 0° 261° (W) 5,394 7.8 -20.3°
Reaches altitude 10° 20:29:52 10° 263° (W) 3,022 6.5 -20.8°
Maximum altitude 20:35:32 81° 351° (N) 491 2.0 -21.4°
Enters shadow 20:35:40 78° 31° (NNE) 486 1.9 -21.4°
